Wind_Speed
13 12 11 10 9 9 9 10 11 11 12 13 14 15 16 18 20 22 23 23 23 21 18 16 14 13 13 12 12 12 11 12 12 11 11 12 12 13 14 14 14 14
16 15 15 13 12 12 12 13 13 14 14 15 16 16 17 18 19 21 23 23 23 22 19 17 15 14 14 13 13 13 13 13 13 12 12 12 13 13 14 14 14 15
19 19 18 17 16 15 15 16 16 17 17 17 18 18 19 19 20 21 22 23 24 23 20 17 16 15 14 14 13 13 13 13 14 14 13 14 14 14 15 15 16 16
22 22 21 20 20 19 18 18 19 19 19 19 19 19 19 20 20 21 22 23 23 23 21 18 16 15 14 14 13 13 13 14 14 14 14 15 16 16 16 17 17 18
24 24 24 23 23 22 21 21 21 22 21 20 19 19 20 20 20 20 22 23 23 23 21 18 16 14 14 14 13 13 13 14 14 15 15 16 17 17 17 18 18 19
27 27 27 27 27 26 24 23 24 24 22 20 20 20 20 20 20 21 22 23 23 22 20 17 15 14 14 13 13 13 13 13 14 15 15 16 17 18 18 19 19 20
29 30 30 30 30 29 27 26 26 25 23 21 21 21 21 21 21 21 22 23 22 21 19 17 15 14 14 13 13 13 13 14 15 15 16 16 17 18 20 20 21 21
31 32 33 33 32 31 29 28 27 26 24 22 22 22 22 21 20 20 22 23 21 20 19 17 15 15 15 14 14 14 15 16 16 16 17 17 18 19 21 22 22 22
33 35 35 35 35 33 31 31 29 26 25 24 23 22 21 21 20 21 23 21 20 19 18 16 16 16 16 15 15 16 16 16 17 17 17 17 18 19 21 22 23 23
35 37 38 39 39 36 34 34 31 27 25 25 24 22 21 20 19 19 20 18 18 18 17 16 16 15 16 16 16 16 16 17 17 18 18 19 19 20 21 22 23 23
37 39 42 42 41 38 35 33 31 28 27 27 25 23 21 19 17 17 18 18 18 18 17 16 16 15 15 16 16 16 16 17 18 18 20 21 21 22 22 23 23 23
39 42 46 43 40 39 35 30 29 28 28 28 26 23 21 19 18 18 19 19 18 18 17 16 15 14 15 16 16 16 15 15 17 18 21 23 24 24 24 24 25 24
44 47 49 46 44 44 37 29 29 29 29 30 27 24 24 21 19 20 22 20 19 18 16 15 14 14 15 16 16 16 15 15 17 19 22 24 26 26 26 26 26 26
47 47 48 49 49 46 36 30 30 33 32 32 29 28 27 25 22 25 25 19 18 17 14 14 14 14 15 16 16 16 15 16 18 21 23 24 26 27 27 27 28 27
41 43 47 49 49 47 39 33 33 35 35 34 33 31 29 27 27 27 22 16 16 15 13 14 15 14 16 17 17 18 18 18 20 22 24 26 26 27 27 28 28 28
35 41 46 47 47 47 41 34 34 36 38 38 36 35 33 29 26 21 16 14 14 13 12 13 14 15 17 19 20 21 21 22 23 24 26 28 28 27 27 27 28 29
32 38 45 47 47 45 39 32 32 36 39 40 39 37 34 27 19 14 14 15 13 11 12 13 14 16 19 21 22 24 25 26 26 27 28 29 30 29 27 27 29 29
31 36 45 47 43 40 36 29 31 36 39 40 40 36 29 21 15 13 13 13 12 11 12 13 15 18 20 23 24 25 28 29 30 30 30 30 31 31 29 29 30 30
31 37 46 44 36 34 32 26 30 36 38 39 38 32 25 18 14 13 12 11 11 12 13 15 17 19 22 24 26 28 31 32 33 33 33 32 32 32 31 31 31 32
31 37 44 39 30 29 28 24 29 35 38 41 36 26 20 17 14 12 12 11 12 13 16 17 19 21 23 25 28 31 33 34 35 36 35 34 33 33 32 32 33 34
31 36 39 33 26 26 26 26 30 34 35 36 29 19 17 17 14 12 11 11 12 15 18 19 20 22 25 27 30 32 33 35 37 37 36 35 35 34 33 33 33 35
31 34 34 28 24 26 26 25 26 25 23 24 21 18 17 16 13 12 11 11 14 17 19 20 21 24 27 29 31 33 35 37 37 37 36 35 35 35 34 33 34 36
29 30 29 25 23 24 20 17 17 17 18 19 19 18 16 13 12 13 14 15 17 19 21 22 23 25 28 30 33 35 37 36 35 36 36 36 36 35 34 34 35 37
25 27 24 20 20 19 15 16 19 20 19 19 18 16 15 14 15 16 18 19 20 21 24 26 26 27 30 32 35 38 37 35 35 35 36 35 35 34 34 35 36 37
22 23 18 14 16 17 18 20 21 21 20 19 18 17 17 17 19 20 20 20 22 24 28 30 29 30 32 34 36 38 38 36 35 35 35 35 35 34 35 35 35 36
18 16 12 15 17 18 20 22 22 22 20 20 21 21 21 21 21 21 20 21 23 27 30 31 31 31 33 35 37 37 37 36 35 35 34 35 35 35 34 34 34 35
Wind_Direction
234 236 240 246 257 272 284 291 298 305 313 319 324 328 333 340 347 351 353 351 349 348 345 343 339 333 328 325 324 322 319 316 312 308 305 302 301 299 299 300 299 299
240 243 247 251 256 265 274 281 288 295 302 307 311 317 323 330 337 342 346 347 345 344 342 341 336 332 329 327 325 321 318 315 310 307 303 300 300 299 299 300 299 297
245 248 251 254 257 263 270 275 281 288 292 296 301 308 314 322 327 333 338 340 340 339 339 337 334 331 328 325 321 317 314 311 307 306 306 304 304 303 302 300 298 295
251 252 253 255 258 260 264 269 275 281 285 288 294 301 308 315 320 325 330 334 336 335 334 334 333 329 325 321 318 316 313 309 306 307 308 307 305 304 302 298 296 292
254 253 253 255 257 258 261 265 271 276 279 284 290 297 304 310 314 317 323 329 331 330 329 330 329 325 321 319 318 317 313 308 308 309 308 306 303 302 299 296 293 291
253 253 253 254 255 257 258 261 267 271 275 280 287 294 300 304 308 310 317 324 326 326 324 323 324 321 319 318 319 319 318 314 313 312 309 305 303 301 298 294 293 291
254 254 253 253 254 256 257 259 264 269 272 277 283 290 295 298 302 306 314 321 320 319 317 316 319 319 316 317 320 323 324 323 321 319 315 310 306 304 300 298 297 296
254 253 252 252 251 253 256 258 262 266 268 273 279 284 288 291 296 302 312 317 314 311 312 312 316 317 315 317 321 324 326 325 324 323 320 317 312 307 303 301 302 302
253 252 251 251 252 253 255 257 259 261 265 270 274 276 279 284 290 299 309 313 309 307 308 311 315 316 315 316 319 322 324 322 321 321 321 319 314 310 306 304 304 305
252 250 248 249 251 252 254 258 258 257 261 265 266 268 272 279 287 299 310 309 305 305 306 309 312 312 312 314 317 321 321 319 319 319 319 318 316 313 308 306 305 304
252 251 249 248 248 250 256 260 254 252 257 258 259 261 266 273 280 294 308 306 299 301 304 305 308 310 312 314 317 318 317 315 315 317 318 317 316 314 310 307 305 303
253 250 246 243 242 246 253 254 246 246 252 253 254 256 259 265 271 281 295 298 295 296 300 303 305 309 311 311 311 310 309 310 312 316 318 318 317 314 311 308 306 303
247 243 244 246 246 247 253 256 243 238 245 250 249 250 253 256 265 279 287 289 290 291 295 299 301 306 310 311 311 306 302 304 309 316 320 319 316 312 310 309 307 304
251 250 254 257 256 253 258 265 248 234 239 245 245 246 250 253 266 283 285 280 280 283 287 293 298 308 315 316 317 312 307 308 312 317 319 318 314 310 308 309 309 306
266 269 264 261 260 256 259 267 257 241 238 240 242 245 247 255 271 281 278 268 268 274 281 291 298 310 315 314 315 316 315 316 316 317 318 318 316 311 307 308 309 307
274 277 269 263 262 258 257 264 262 249 240 237 239 243 247 258 271 272 263 260 264 272 283 293 301 308 311 313 314 313 312 313 314 316 318 319 318 312 306 306 307 306
274 279 273 264 262 257 254 261 261 249 242 238 237 243 252 263 267 254 251 260 268 279 287 294 303 306 309 313 313 311 310 309 310 312 313 315 316 312 305 302 304 305
276 282 275 267 265 259 254 262 260 246 240 237 237 245 256 262 257 246 251 262 274 287 290 295 304 304 306 309 309 308 310 310 310 310 309 310 312 310 304 300 301 303
280 285 279 273 271 260 251 260 262 249 240 237 239 247 254 253 249 246 252 265 278 288 293 299 304 303 304 306 306 306 308 309 310 310 308 308 308 307 302 297 298 301
281 284 281 277 275 262 249 252 255 248 242 239 240 246 251 250 247 243 252 269 279 287 293 298 302 303 303 304 304 305 305 306 307 307 307 306 306 304 299 294 295 300
277 281 282 282 278 265 253 250 248 246 247 247 244 242 243 243 241 244 257 272 281 286 290 294 300 302 302 302 302 302 301 302 303 305 305 304 304 301 296 292 295 301
274 279 287 286 275 265 260 253 244 241 246 248 240 231 233 236 241 254 270 279 281 285 289 295 300 300 299 299 299 298 299 301 303 305 304 302 302 300 296 294 299 303
279 285 291 286 271 266 260 239 218 212 217 222 220 221 228 237 250 265 274 278 280 285 290 295 297 297 298 298 297 296 298 300 301 303 302 300 299 299 298 300 303 305
286 290 290 278 262 253 231 203 190 188 194 203 209 219 231 243 256 263 268 274 281 287 290 290 291 293 293 292 291 293 295 297 298 299 298 297 298 299 300 302 303 304
281 284 274 245 228 216 200 192 183 177 185 201 213 223 235 244 252 260 267 277 284 286 285 285 287 289 289 289 289 288 289 292 295 296 297 297 297 298 299 300 302 303
271 267 234 203 201 197 190 187 180 177 190 209 220 228 236 243 252 264 274 280 282 282 282 284 287 290 291 293 293 290 287 289 293 295 296 296 295 295 297 299 301 302
Height
3191 3191 3192 3192 3192 3192 3192 3192 3192 3192 3191 3191 3190 3190 3189 3188 3187 3185 3184 3183 3182 3181 3179 3178 3177 3177 3176 3174 3173 3172 3172 3171 3171 3171 3170 3169 3169 3168 3167 3167 3166 3165
3189 3189 3190 3190 3190 3190 3190 3190 3190 3190 3190 3189 3189 3189 3188 3187 3186 3184 3183 3182 3181 3179 3178 3177 3176 3175 3174 3173 3172 3171 3170 3170 3169 3169 3168 3168 3167 3166 3166 3165 3164 3163
3186 3187 3187 3188 3188 3188 3188 3188 3188 3188 3188 3188 3187 3187 3187 3186 3185 3184 3182 3181 3180 3178 3177 3175 3174 3173 3172 3171 3171 3170 3169 3168 3168 3167 3166 3165 3165 3164 3164 3163 3162 3161
3184 3184 3185 3186 3186 3186 3186 3186 3186 3186 3186 3186 3186 3186 3185 3185 3184 3183 3182 3180 3179 3178 3176 3174 3173 3172 3171 3170 3170 3169 3168 3167 3166 3165 3164 3163 3163 3162 3161 3161 3160 3159
3182 3182 3183 3183 3183 3183 3183 3184 3184 3184 3184 3184 3184 3184 3183 3183 3182 3182 3181 3179 3178 3176 3175 3173 3172 3171 3170 3169 3169 3168 3167 3166 3164 3163 3162 3162 3161 3160 3159 3159 3158 3156
3178 3179 3179 3179 3180 3180 3181 3181 3182 3181 3182 3182 3182 3182 3181 3181 3180 3180 3179 3178 3176 3175 3173 3172 3171 3170 3169 3168 3167 3166 3165 3164 3163 3161 3161 3160 3159 3158 3157 3156 3156 3154
3175 3175 3176 3176 3176 3177 3178 3179 3179 3179 3179 3180 3180 3179 3179 3178 3178 3178 3177 3176 3175 3174 3172 3171 3169 3168 3167 3167 3165 3164 3163 3162 3160 3159 3159 3158 3157 3156 3155 3154 3153 3152
3172 3172 3173 3173 3174 3175 3176 3176 3176 3176 3177 3177 3177 3177 3176 3176 3175 3175 3175 3174 3173 3172 3170 3169 3168 3166 3165 3164 3163 3162 3161 3159 3158 3157 3157 3156 3155 3154 3153 3152 3151 3150
3169 3169 3170 3170 3171 3172 3173 3173 3174 3174 3175 3175 3174 3174 3173 3172 3172 3172 3172 3171 3171 3169 3168 3167 3165 3164 3163 3162 3161 3159 3158 3157 3156 3155 3155 3154 3153 3152 3151 3150 3148 3148
3165 3166 3166 3166 3166 3167 3168 3170 3172 3172 3172 3172 3171 3170 3169 3169 3169 3169 3169 3168 3168 3167 3166 3165 3163 3162 3161 3160 3158 3157 3156 3155 3154 3153 3152 3151 3151 3149 3148 3147 3146 3145
3162 3162 3160 3160 3162 3163 3164 3166 3168 3169 3169 3168 3167 3166 3166 3166 3165 3165 3166 3166 3165 3164 3164 3163 3162 3160 3159 3158 3156 3155 3154 3153 3151 3150 3149 3148 3147 3146 3145 3144 3143 3143
3158 3156 3154 3156 3160 3160 3161 3162 3163 3165 3165 3164 3164 3163 3162 3162 3162 3162 3163 3164 3163 3162 3162 3161 3160 3159 3157 3156 3155 3153 3152 3151 3149 3148 3147 3146 3145 3143 3142 3141 3140 3139
3152 3152 3151 3153 3154 3155 3156 3157 3158 3160 3161 3160 3160 3159 3158 3158 3158 3159 3161 3162 3161 3160 3159 3159 3157 3157 3155 3154 3153 3151 3150 3148 3147 3146 3145 3144 3143 3141 3140 3139 3138 3136
3146 3148 3147 3146 3146 3148 3151 3151 3152 3154 3155 3155 3155 3154 3154 3154 3155 3156 3157 3158 3157 3157 3157 3156 3155 3154 3153 3152 3151 3149 3147 3146 3145 3144 3143 3142 3141 3139 3138 3136 3135 3134
3141 3142 3141 3141 3141 3143 3145 3146 3146 3148 3149 3150 3150 3150 3150 3151 3152 3153 3153 3153 3153 3154 3154 3153 3152 3151 3151 3150 3148 3147 3145 3144 3143 3141 3140 3139 3138 3137 3135 3134 3132 3131
3139 3138 3136 3136 3136 3137 3140 3142 3142 3143 3144 3145 3146 3145 3146 3148 3150 3150 3149 3149 3150 3151 3151 3150 3149 3148 3148 3147 3145 3144 3142 3141 3140 3139 3137 3136 3135 3134 3132 3131 3130 3128
3137 3135 3132 3131 3132 3133 3135 3137 3138 3139 3140 3140 3141 3141 3143 3146 3148 3147 3147 3148 3148 3148 3148 3147 3146 3145 3144 3143 3142 3140 3139 3138 3137 3136 3134 3133 3132 3131 3129 3128 3127 3125
3134 3132 3127 3126 3129 3129 3130 3134 3136 3137 3137 3137 3138 3139 3142 3145 3145 3145 3145 3146 3146 3146 3146 3145 3143 3142 3141 3140 3138 3136 3135 3134 3133 3132 3131 3130 3129 3128 3126 3125 3123 3122
3131 3128 3122 3122 3127 3128 3129 3133 3134 3134 3134 3135 3136 3138 3140 3142 3142 3142 3143 3143 3143 3143 3143 3142 3141 3140 3138 3136 3135 3133 3132 3130 3129 3129 3128 3127 3126 3125 3123 3121 3119 3118
3126 3122 3118 3119 3124 3125 3127 3130 3131 3131 3132 3132 3133 3135 3137 3138 3139 3139 3140 3140 3140 3140 3140 3140 3139 3137 3136 3134 3132 3130 3129 3127 3126 3125 3124 3124 3123 3122 3120 3118 3116 3114
3120 3117 3115 3117 3121 3122 3123 3125 3126 3128 3128 3129 3132 3133 3134 3135 3136 3136 3137 3137 3137 3137 3137 3137 3136 3135 3133 3131 3130 3128 3126 3125 3123 3122 3121 3120 3120 3118 3116 3114 3112 3110
3114 3112 3113 3116 3117 3117 3118 3119 3121 3124 3126 3128 3130 3131 3132 3133 3134 3134 3134 3134 3134 3134 3133 3134 3133 3132 3130 3129 3127 3125 3124 3122 3121 3119 3118 3117 3116 3115 3113 3111 3109 3107
3110 3109 3110 3112 3112 3112 3114 3115 3117 3120 3122 3124 3127 3128 3130 3131 3132 3132 3132 3132 3131 3130 3130 3130 3130 3129 3128 3126 3124 3122 3121 3120 3118 3116 3115 3114 3112 3111 3109 3107 3105 3103
3106 3106 3106 3107 3107 3109 3111 3111 3113 3115 3118 3121 3124 3126 3128 3129 3129 3130 3130 3129 3128 3128 3127 3127 3127 3126 3125 3123 3121 3120 3118 3116 3115 3113 3112 3110 3108 3107 3105 3104 3102 3100
3102 3102 3102 3103 3103 3105 3107 3108 3110 3112 3116 3119 3122 3123 3125 3126 3126 3127 3127 3126 3126 3125 3124 3124 3123 3122 3121 3119 3118 3116 3115 3113 3111 3109 3108 3106 3104 3103 3102 3100 3099 3096
3098 3098 3099 3100 3101 3102 3104 3106 3108 3110 3114 3117 3119 3120 3121 3122 3123 3124 3124 3123 3122 3122 3121 3120 3119 3118 3117 3115 3114 3112 3111 3109 3107 3105 3103 3102 3100 3099 3098 3097 3095 3092